Flag for Belgium Weather past 2 weeks in Antwerp, Belgium

Now
64 °F

Scattered clouds.


Feels Like: 64 °F
Forecast: 56 / 63 °F
Wind: 12 mph from West

Location: Antwerp / Deurne

Current Time: Aug 30, 2014 at 5:26:39 PM

Latest Report: Aug 30, 2014 at 4:50 PM


Visibility: N/A

Pressure: 29.98 "Hg

Humidity: 78%

Dew point: 57 °F

Location of AntwerpLocation

Historic Weather in Antwerp — Graph

°F

Antwerp temperature yesterday

Maximum temperature yesterday: 70 °F (at 2:50 PM)
Minimum temperature yesterday: 59 °F (at 1:20 AM)
Average temperature yesterday: 64 °F

Past Weeks' High & Low Weather Summary

 TemperatureHumidityPressure
High72 °F (Aug 28, 3:50 PM)94% (Aug 17, 9:20 AM)30.12 "Hg (Aug 17, 9:20 AM)
Low46 °F (Aug 20, 5:50 AM)46% (Aug 21, 2:20 PM)29.59 "Hg (Aug 26, 2:50 AM)
Average59 °F78%29.93 "Hg
* Reported Aug 15 4:20 PM — Aug 30 4:20 PM, Antwerp, Weather by CustomWeather, © 2014

Note: Actual official high and low records may vary slightly from our data, if they occured in-between our weather recording intervals... More about our weather records

Advertising

Antwerp weather history for previous 24 hours

 ConditionsComfort  
Time TempWeatherWind HumidityBarometerVisibility
4:20 PM
Aug 30
63 °FPartly sunny.12 mph83%29.98 "HgN/A
3:50 PM63 °FBroken clouds.12 mph83%30.01 "HgN/A
3:20 PM59 °FRain showers. Partly sunny.16 mph88%30.01 "Hg2 mi
2:50 PM66 °FPartly sunny.14 mph78%29.98 "HgN/A
2:20 PM66 °FBroken clouds.14 mph78%29.98 "HgN/A
1:50 PM66 °FPartly sunny.13 mph78%30.01 "HgN/A
1:20 PM63 °FPartly sunny.10 mph88%30.01 "HgN/A
12:50 PM63 °FPartly sunny.13 mph88%30.01 "HgN/A
12:20 PM63 °FDrizzle. Partly sunny.10 mph88%30.01 "Hg3 mi
11:50 AM63 °FDrizzle. Fog.12 mph83%30.01 "Hg2 mi
11:20 AM63 °FLight rain. Partly sunny.10 mph83%30.01 "Hg6 mi
10:50 AM63 °FBroken clouds.13 mph83%30.01 "HgN/A
10:20 AM61 °FPartly sunny.14 mph88%30.01 "HgN/A
9:50 AM61 °FSprinkles. Partly sunny.12 mph88%30.01 "HgN/A
9:20 AM61 °FSprinkles. Broken clouds.9 mph88%30.01 "HgN/A
8:50 AM61 °FPartly sunny.12 mph88%30.01 "HgN/A
8:20 AM61 °FPartly sunny.10 mph88%30.01 "HgN/A
7:50 AM61 °FPartly cloudy.12 mph83%29.98 "HgN/A
7:20 AM61 °FPassing clouds.12 mph83%29.98 "HgN/A
6:50 AM61 °FPassing clouds.12 mph83%29.98 "HgN/A
6:20 AM61 °FPassing clouds.12 mph83%29.98 "HgN/A
5:50 AM61 °FPassing clouds.12 mph83%29.98 "HgN/A
5:20 AM61 °FPassing clouds.10 mph83%30.01 "HgN/A
4:50 AM63 °FOvercast.10 mph77%30.01 "HgN/A
4:20 AM63 °FOvercast.9 mph77%30.01 "HgN/A
3:50 AM63 °FOvercast.10 mph77%30.01 "HgN/A
3:20 AM63 °FPassing clouds.10 mph77%30.01 "HgN/A
2:50 AM63 °FPassing clouds.10 mph77%30.01 "HgN/A
2:20 AM63 °FClear.9 mph77%30.01 "Hg10 mi
1:50 AM63 °FPassing clouds.8 mph77%30.01 "HgN/A
1:20 AM63 °FPassing clouds.8 mph73%30.01 "HgN/A
12:50 AM63 °FClear.9 mph73%30.01 "Hg10 mi
12:20 AM63 °FClear.8 mph73%30.01 "Hg10 mi
11:50 PM
Aug 29
63 °FClear.7 mph73%30.01 "Hg10 mi
11:20 PM63 °FClear.7 mph73%30.01 "Hg10 mi
10:50 PM63 °FClear.7 mph73%30.01 "Hg10 mi
8:50 PM66 °FPassing clouds.9 mph60%30.01 "HgN/A
8:20 PM66 °FPassing clouds.12 mph60%29.98 "HgN/A
7:50 PM68 °FPassing clouds.10 mph60%29.98 "HgN/A
7:20 PM68 °FPassing clouds.10 mph56%29.98 "HgN/A
6:50 PM70 °FPassing clouds.13 mph53%29.98 "HgN/A
6:20 PM70 °FPassing clouds.10 mph57%29.98 "HgN/A
5:50 PM70 °FScattered clouds.10 mph57%29.98 "HgN/A
5:20 PM70 °FScattered clouds.10 mph53%29.98 "HgN/A
Weather by CustomWeather, © 2014

See weather overviewHow to use our weather pages